Time,TemperatureF,DewpointF,PressureIn,WindDirection,WindDirectionDegrees,WindSpeedMPH,WindSpeedGustMPH,Humidity,HourlyPrecipIn,Conditions,Clouds,dailyrainin,SoftwareType,DateUTC
2013-01-08 00:02:00,30.0,21.0,-100.00,WSW,250,7.0,9.0,68,0.00,,,0.00,,2013-01-08 00:02:00,
2013-01-08 00:12:00,29.0,19.0,-100.00,WSW,250,7.0,8.0,68,0.00,,,0.00,,2013-01-08 00:12:00,
2013-01-08 00:22:00,29.0,19.0,-100.00,WSW,245,5.0,7.0,68,0.00,,,0.00,,2013-01-08 00:22:00,
2013-01-08 00:32:00,29.0,19.0,-100.00,West,270,4.0,6.0,68,0.00,,,0.00,,2013-01-08 00:32:00,
2013-01-08 00:42:00,29.0,19.0,-100.00,West,280,4.0,6.0,70,0.00,,,0.00,,2013-01-08 00:42:00,
2013-01-08 00:52:00,29.0,21.0,-100.00,WNW,285,4.0,6.0,70,0.00,,,0.00,,2013-01-08 00:52:00,
2013-01-08 01:02:00,29.0,21.0,-100.00,WSW,240,4.0,5.0,70,0.00,,,0.00,,2013-01-08 01:02:00,
2013-01-08 01:12:00,29.0,21.0,-100.00,SW,230,4.0,5.0,70,0.00,,,0.00,,2013-01-08 01:12:00,
2013-01-08 01:22:00,29.0,21.0,-100.00,SW,225,4.0,4.0,70,0.00,,,0.00,,2013-01-08 01:22:00,
2013-01-08 01:33:00,29.0,19.0,-100.00,WSW,240,4.0,6.0,69,0.00,,,0.00,,2013-01-08 01:33:00,
2013-01-08 01:42:00,29.0,19.0,-100.00,SW,230,2.0,4.0,69,0.00,,,0.00,,2013-01-08 01:42:00,
2013-01-08 01:52:00,28.0,19.0,-100.00,SSW,200,2.0,4.0,70,0.00,,,0.00,,2013-01-08 01:52:00,
2013-01-08 02:02:00,27.0,19.0,-100.00,South,175,2.0,4.0,71,0.00,,,0.00,,2013-01-08 02:02:00,
2013-01-08 02:12:00,27.0,19.0,-100.00,South,190,4.0,4.0,71,0.00,,,0.00,,2013-01-08 02:12:00,
2013-01-08 02:22:00,27.0,19.0,-100.00,SSW,205,4.0,4.0,71,0.00,,,0.00,,2013-01-08 02:22:00,
2013-01-08 02:32:00,28.0,19.0,-100.00,SW,215,3.0,6.0,71,0.00,,,0.00,,2013-01-08 02:32:00,
2013-01-08 02:42:00,28.0,19.0,-100.00,SW,225,4.0,6.0,71,0.00,,,0.00,,2013-01-08 02:42:00,
2013-01-08 02:53:00,27.0,19.0,-100.00,SW,230,2.0,5.0,71,0.00,,,0.00,,2013-01-08 02:53:00,
2013-01-08 03:03:00,26.0,19.0,-100.00,SW,225,3.0,4.0,72,0.00,,,0.00,,2013-01-08 03:03:00,
2013-01-08 03:12:00,26.0,19.0,-100.00,SW,225,3.0,5.0,72,0.00,,,0.00,,2013-01-08 03:12:00,
2013-01-08 03:22:00,27.0,19.0,-100.00,SW,215,2.0,6.0,72,0.00,,,0.00,,2013-01-08 03:22:00,
2013-01-08 03:32:00,26.0,19.0,-100.00,South,190,5.0,6.0,72,0.00,,,0.00,,2013-01-08 03:32:00,
2013-01-08 03:42:00,26.0,18.0,-100.00,SW,215,4.0,6.0,73,0.00,,,0.00,,2013-01-08 03:42:00,
2013-01-08 03:52:00,25.0,18.0,-100.00,SSW,210,2.0,4.0,74,0.00,,,0.00,,2013-01-08 03:52:00,
2013-01-08 04:02:00,25.0,18.0,-100.00,SSW,195,4.0,6.0,75,0.00,,,0.00,,2013-01-08 04:02:00,
2013-01-08 04:12:00,24.0,18.0,-100.00,South,185,4.0,4.0,76,0.00,,,0.00,,2013-01-08 04:12:00,
2013-01-08 04:22:00,25.0,18.0,-100.00,South,190,5.0,6.0,76,0.00,,,0.00,,2013-01-08 04:22:00,
2013-01-08 04:32:00,24.0,18.0,-100.00,South,185,4.0,5.0,77,0.00,,,0.00,,2013-01-08 04:32:00,
2013-01-08 04:42:00,24.0,18.0,-100.00,South,180,4.0,4.0,78,0.00,,,0.00,,2013-01-08 04:42:00,
2013-01-08 04:52:00,23.0,18.0,-100.00,South,185,3.0,4.0,79,0.00,,,0.00,,2013-01-08 04:52:00,
2013-01-08 05:03:00,22.0,18.0,-100.00,South,190,6.0,6.0,80,0.00,,,0.00,,2013-01-08 05:03:00,
2013-01-08 05:12:00,22.0,18.0,-100.00,South,185,5.0,6.0,80,0.00,,,0.00,,2013-01-08 05:12:00,
2013-01-08 05:22:00,22.0,18.0,-100.00,South,190,4.0,4.0,82,0.00,,,0.00,,2013-01-08 05:22:00,
2013-01-08 05:33:00,23.0,18.0,-100.00,SW,215,2.0,4.0,83,0.00,,,0.00,,2013-01-08 05:33:00,
2013-01-08 05:42:00,23.0,18.0,-100.00,SSW,205,2.0,4.0,83,0.00,,,0.00,,2013-01-08 05:42:00,
2013-01-08 05:53:00,22.0,18.0,-100.00,South,180,1.0,2.0,84,0.00,,,0.00,,2013-01-08 05:53:00,
2013-01-08 06:02:00,19.0,16.0,-100.00,ESE,115,0.0,1.0,85,0.00,,,0.00,,2013-01-08 06:02:00,
2013-01-08 06:12:00,19.0,16.0,-100.00,NW,315,0.0,2.0,86,0.00,,,0.00,,2013-01-08 06:12:00,
2013-01-08 06:22:00,19.0,16.0,-100.00,NW,315,0.0,2.0,86,0.00,,,0.00,,2013-01-08 06:22:00,
2013-01-08 06:32:00,19.0,16.0,-100.00,NW,315,0.0,2.0,86,0.00,,,0.00,,2013-01-08 06:32:00,
2013-01-08 06:42:00,19.0,16.0,-100.00,NW,315,0.0,2.0,86,0.00,,,0.00,,2013-01-08 06:42:00,
2013-01-08 06:52:00,19.0,16.0,-100.00,NW,315,0.0,2.0,86,0.00,,,0.00,,2013-01-08 06:52:00,
2013-01-08 07:02:00,21.0,18.0,-100.00,SE,125,5.0,7.0,87,0.00,,,0.00,,2013-01-08 07:02:00,
2013-01-08 07:12:00,21.0,18.0,-100.00,SE,135,4.0,6.0,87,0.00,,,0.00,,2013-01-08 07:12:00,
2013-01-08 07:22:00,19.0,16.0,-100.00,SE,135,3.0,6.0,87,0.00,,,0.00,,2013-01-08 07:22:00,
2013-01-08 07:32:00,20.0,18.0,-100.00,SSE,150,4.0,5.0,88,0.00,,,0.00,,2013-01-08 07:32:00,
2013-01-08 07:42:00,20.0,18.0,-100.00,SSE,155,4.0,5.0,88,0.00,,,0.00,,2013-01-08 07:42:00,
2013-01-08 07:52:00,19.0,16.0,-100.00,SE,140,4.0,5.0,88,0.00,,,0.00,,2013-01-08 07:52:00,
2013-01-08 08:02:00,18.0,16.0,-100.00,SE,140,5.0,5.0,89,0.00,,,0.00,,2013-01-08 08:02:00,
2013-01-08 08:12:00,20.0,18.0,-100.00,South,170,6.0,7.0,90,0.00,,,0.00,,2013-01-08 08:12:00,
2013-01-08 08:22:00,21.0,19.0,-100.00,South,170,7.0,8.0,90,0.00,,,0.00,,2013-01-08 08:22:00,
2013-01-08 08:32:00,21.0,18.0,-100.00,SSE,160,7.0,9.0,89,0.00,,,0.00,,2013-01-08 08:32:00,
2013-01-08 08:42:00,21.0,18.0,-100.00,SE,130,6.0,7.0,89,0.00,,,0.00,,2013-01-08 08:42:00,
2013-01-08 08:52:00,22.0,19.0,-100.00,SSE,155,6.0,6.0,89,0.00,,,0.00,,2013-01-08 08:52:00,
2013-01-08 09:02:00,22.0,19.0,-100.00,SSE,150,5.0,7.0,88,0.00,,,0.00,,2013-01-08 09:02:00,
2013-01-08 09:12:00,21.0,19.0,-100.00,South,170,7.0,7.0,88,0.00,,,0.00,,2013-01-08 09:12:00,
2013-01-08 09:22:00,22.0,19.0,-100.00,SSE,155,7.0,9.0,88,0.00,,,0.00,,2013-01-08 09:22:00,
2013-01-08 09:32:00,21.0,18.0,-100.00,SSE,150,7.0,9.0,88,0.00,,,0.00,,2013-01-08 09:32:00,
2013-01-08 09:42:00,21.0,18.0,-100.00,SE,130,6.0,8.0,88,0.00,,,0.00,,2013-01-08 09:42:00,
2013-01-08 09:52:00,21.0,18.0,-100.00,SE,125,6.0,7.0,88,0.00,,,0.00,,2013-01-08 09:52:00,
2013-01-08 10:02:00,20.0,18.0,-100.00,SSE,150,9.0,11.0,88,0.00,,,0.00,,2013-01-08 10:02:00,
2013-01-08 10:12:00,21.0,18.0,-100.00,SE,135,9.0,12.0,89,0.00,,,0.00,,2013-01-08 10:12:00,
2013-01-08 10:22:00,21.0,18.0,-100.00,SE,140,7.0,11.0,89,0.00,,,0.00,,2013-01-08 10:22:00,
2013-01-08 10:32:00,21.0,18.0,-100.00,SSE,150,7.0,10.0,89,0.00,,,0.00,,2013-01-08 10:32:00,
2013-01-08 10:42:00,22.0,19.0,-100.00,SSE,150,9.0,11.0,88,0.00,,,0.00,,2013-01-08 10:42:00,
2013-01-08 10:52:00,22.0,19.0,-100.00,SE,145,7.0,11.0,87,0.00,,,0.00,,2013-01-08 10:52:00,
2013-01-08 11:02:00,23.0,19.0,-100.00,SSE,150,9.0,11.0,86,0.00,,,0.00,,2013-01-08 11:02:00,
2013-01-08 11:12:00,23.0,19.0,-100.00,SSE,150,9.0,10.0,85,0.00,,,0.00,,2013-01-08 11:12:00,
2013-01-08 11:22:00,24.0,19.0,-100.00,SE,140,7.0,12.0,83,0.00,,,0.00,,2013-01-08 11:22:00,
2013-01-08 11:32:00,24.0,19.0,-100.00,SSE,160,10.0,13.0,83,0.00,,,0.00,,2013-01-08 11:32:00,
2013-01-08 11:42:00,22.0,18.0,-100.00,SSE,165,11.0,12.0,84,0.00,,,0.00,,2013-01-08 11:42:00,
2013-01-08 11:53:00,21.0,18.0,-100.00,SSE,160,12.0,12.0,86,0.00,,,0.00,,2013-01-08 11:53:00,
2013-01-08 12:02:00,22.0,18.0,-100.00,SSE,150,11.0,13.0,86,0.00,,,0.00,,2013-01-08 12:02:00,
2013-01-08 12:12:00,23.0,19.0,-100.00,SSE,150,12.0,14.0,86,0.00,,,0.00,,2013-01-08 12:12:00,
2013-01-08 12:22:00,24.0,19.0,-100.00,SE,140,10.0,15.0,84,0.00,,,0.00,,2013-01-08 12:22:00,
2013-01-08 12:32:00,26.0,21.0,-100.00,SE,145,12.0,14.0,80,0.00,,,0.00,,2013-01-08 12:32:00,
2013-01-08 12:42:00,26.0,19.0,-100.00,SE,145,11.0,16.0,78,0.00,,,0.00,,2013-01-08 12:42:00,
2013-01-08 12:53:00,27.0,21.0,-100.00,SE,135,11.0,12.0,76,0.00,,,0.00,,2013-01-08 12:53:00,
2013-01-08 13:03:00,28.0,21.0,-100.00,SE,130,12.0,16.0,73,0.00,,,0.00,,2013-01-08 13:03:00,
2013-01-08 13:12:00,28.0,19.0,-100.00,SE,135,9.0,15.0,72,0.00,,,0.00,,2013-01-08 13:12:00,
2013-01-08 13:22:00,28.0,19.0,-100.00,SE,125,11.0,14.0,70,0.00,,,0.00,,2013-01-08 13:22:00,
2013-01-08 13:32:00,29.0,19.0,-100.00,SE,135,11.0,16.0,69,0.00,,,0.00,,2013-01-08 13:32:00,
2013-01-08 13:42:00,29.0,19.0,-100.00,SE,140,12.0,16.0,68,0.00,,,0.00,,2013-01-08 13:42:00,
2013-01-08 13:52:00,29.0,19.0,-100.00,SE,140,12.0,18.0,67,0.00,,,0.00,,2013-01-08 13:52:00,
2013-01-08 14:02:00,29.0,19.0,-100.00,SE,145,16.0,19.0,65,0.00,,,0.00,,2013-01-08 14:02:00,
2013-01-08 14:23:00,29.0,19.0,-100.00,SE,135,15.0,18.0,64,0.00,,,0.00,,2013-01-08 14:23:00,
2013-01-08 14:33:00,29.0,18.0,-100.00,SE,140,16.0,20.0,65,0.00,,,0.00,,2013-01-08 14:33:00,
2013-01-08 14:42:00,29.0,19.0,-100.00,SE,140,15.0,21.0,66,0.00,,,0.00,,2013-01-08 14:42:00,
2013-01-08 14:53:00,29.0,19.0,-100.00,SE,145,17.0,19.0,65,0.00,,,0.00,,2013-01-08 14:53:00,
2013-01-08 15:02:00,28.0,18.0,-100.00,SE,145,15.0,19.0,66,0.00,,,0.00,,2013-01-08 15:02:00,
2013-01-08 15:12:00,28.0,18.0,-100.00,SSE,150,14.0,18.0,67,0.00,,,0.00,,2013-01-08 15:12:00,
2013-01-08 15:22:00,28.0,19.0,-100.00,SE,140,14.0,17.0,67,0.00,,,0.00,,2013-01-08 15:22:00,
2013-01-08 15:33:00,28.0,18.0,-100.00,SE,130,17.0,22.0,66,0.00,,,0.00,,2013-01-08 15:33:00,
2013-01-08 15:42:00,28.0,19.0,-100.00,SE,140,15.0,21.0,66,0.00,,,0.00,,2013-01-08 15:42:00,
2013-01-08 15:52:00,28.0,18.0,-100.00,SE,145,17.0,22.0,66,0.00,,,0.00,,2013-01-08 15:52:00,
2013-01-08 16:03:00,28.0,18.0,-100.00,SE,135,14.0,23.0,66,0.00,,,0.00,,2013-01-08 16:03:00,
2013-01-08 16:12:00,28.0,18.0,-100.00,SE,135,12.0,18.0,66,0.00,,,0.00,,2013-01-08 16:12:00,
2013-01-08 16:22:00,28.0,19.0,-100.00,SE,140,12.0,19.0,67,0.00,,,0.00,,2013-01-08 16:22:00,
2013-01-08 16:33:00,28.0,19.0,-100.00,SSE,150,12.0,18.0,67,0.00,,,0.00,,2013-01-08 16:33:00,
2013-01-08 16:42:00,28.0,19.0,-100.00,SE,145,12.0,17.0,68,0.00,,,0.00,,2013-01-08 16:42:00,
2013-01-08 16:52:00,29.0,19.0,-100.00,SE,145,9.0,14.0,68,0.00,,,0.00,,2013-01-08 16:52:00,
2013-01-08 17:03:00,29.0,19.0,-100.00,SE,130,7.0,12.0,67,0.00,,,0.00,,2013-01-08 17:03:00,
2013-01-08 17:12:00,29.0,19.0,-100.00,SE,130,10.0,13.0,67,0.00,,,0.00,,2013-01-08 17:12:00,
2013-01-08 17:23:00,30.0,21.0,-100.00,SE,135,8.0,12.0,67,0.00,,,0.00,,2013-01-08 17:23:00,
2013-01-08 17:33:00,31.0,21.0,-100.00,SE,130,9.0,12.0,67,0.00,,,0.00,,2013-01-08 17:33:00,
2013-01-08 17:43:00,30.0,21.0,-100.00,SE,130,12.0,16.0,68,0.00,,,0.00,,2013-01-08 17:43:00,
2013-01-08 17:53:00,30.0,21.0,-100.00,SE,125,14.0,21.0,69,0.00,,,0.00,,2013-01-08 17:53:00,
2013-01-08 18:03:00,30.0,21.0,-100.00,ESE,120,16.0,18.0,70,0.00,,,0.00,,2013-01-08 18:03:00,
2013-01-08 18:12:00,30.0,21.0,-100.00,SE,125,16.0,21.0,71,0.00,,,0.00,,2013-01-08 18:12:00,
2013-01-08 18:23:00,31.0,23.0,-100.00,ESE,120,19.0,24.0,72,0.00,,,0.00,,2013-01-08 18:23:00,
2013-01-08 18:33:00,30.0,23.0,-100.00,ESE,110,18.0,24.0,73,0.00,,,0.00,,2013-01-08 18:33:00,
2013-01-08 18:43:00,31.0,23.0,-100.00,ESE,115,22.0,29.0,74,0.00,,,0.00,,2013-01-08 18:43:00,
2013-01-08 18:53:00,31.0,23.0,-100.00,ESE,110,18.0,27.0,74,0.00,,,0.00,,2013-01-08 18:53:00,
2013-01-08 19:03:00,31.0,23.0,-100.00,SE,145,14.0,20.0,74,0.00,,,0.00,,2013-01-08 19:03:00,
2013-01-08 19:12:00,31.0,23.0,-100.00,South,175,14.0,20.0,75,0.00,,,0.00,,2013-01-08 19:12:00,
2013-01-08 19:22:00,31.0,25.0,-100.00,South,180,10.0,14.0,77,0.00,,,0.00,,2013-01-08 19:22:00,
2013-01-08 19:32:00,31.0,25.0,-100.00,South,185,7.0,15.0,78,0.00,,,0.00,,2013-01-08 19:32:00,
2013-01-08 19:42:00,31.0,25.0,-100.00,SSE,165,10.0,12.0,78,0.00,,,0.00,,2013-01-08 19:42:00,
2013-01-08 19:53:00,31.0,25.0,-100.00,South,175,11.0,13.0,80,0.00,,,0.00,,2013-01-08 19:53:00,
2013-01-08 20:03:00,30.0,25.0,-100.00,South,175,11.0,13.0,80,0.00,,,0.00,,2013-01-08 20:03:00,
2013-01-08 20:12:00,29.0,25.0,-100.00,SE,145,12.0,15.0,81,0.00,,,0.00,,2013-01-08 20:12:00,
2013-01-08 20:22:00,29.0,25.0,-100.00,SSE,150,14.0,16.0,82,0.00,,,0.00,,2013-01-08 20:22:00,
2013-01-08 20:33:00,29.0,25.0,-100.00,SSE,160,11.0,17.0,82,0.00,,,0.00,,2013-01-08 20:33:00,
2013-01-08 20:43:00,28.0,25.0,-100.00,SSE,150,11.0,16.0,84,0.00,,,0.00,,2013-01-08 20:43:00,
2013-01-08 20:53:00,28.0,25.0,-100.00,SSE,160,13.0,16.0,85,0.00,,,0.00,,2013-01-08 20:53:00,
2013-01-08 21:03:00,27.0,23.0,-100.00,SSE,160,12.0,16.0,86,0.00,,,0.00,,2013-01-08 21:03:00,
2013-01-08 21:12:00,28.0,25.0,-100.00,SSE,160,14.0,16.0,86,0.00,,,0.00,,2013-01-08 21:12:00,
2013-01-08 21:22:00,27.0,23.0,-100.00,SSE,160,14.0,18.0,86,0.00,,,0.00,,2013-01-08 21:22:00,
2013-01-08 21:33:00,27.0,23.0,-100.00,SSE,155,14.0,18.0,87,0.00,,,0.00,,2013-01-08 21:33:00,
2013-01-08 21:43:00,26.0,23.0,-100.00,SSE,160,15.0,17.0,87,0.00,,,0.00,,2013-01-08 21:43:00,
2013-01-08 21:53:00,26.0,23.0,-100.00,SSE,155,14.0,19.0,88,0.00,,,0.00,,2013-01-08 21:53:00,
2013-01-08 22:03:00,26.0,23.0,-100.00,SSE,165,12.0,18.0,88,0.00,,,0.00,,2013-01-08 22:03:00,
2013-01-08 22:12:00,26.0,23.0,-100.00,South,175,11.0,14.0,88,0.00,,,0.00,,2013-01-08 22:12:00,
2013-01-08 22:22:00,26.0,23.0,-100.00,SSE,165,12.0,15.0,89,0.00,,,0.00,,2013-01-08 22:22:00,
2013-01-08 22:32:00,26.0,23.0,-100.00,SSE,165,11.0,12.0,89,0.00,,,0.00,,2013-01-08 22:32:00,
2013-01-08 22:42:00,26.0,23.0,-100.00,South,170,11.0,14.0,90,0.00,,,0.00,,2013-01-08 22:42:00,
2013-01-08 22:52:00,25.0,23.0,-100.00,South,185,9.0,12.0,90,0.00,,,0.00,,2013-01-08 22:52:00,
2013-01-08 23:02:00,25.0,23.0,-100.00,South,170,10.0,12.0,91,0.00,,,0.00,,2013-01-08 23:02:00,
2013-01-08 23:12:00,25.0,23.0,-100.00,South,170,9.0,12.0,91,0.00,,,0.00,,2013-01-08 23:12:00,
2013-01-08 23:22:00,26.0,23.0,-100.00,SSE,165,9.0,10.0,92,0.00,,,0.00,,2013-01-08 23:22:00,
2013-01-08 23:32:00,26.0,25.0,-100.00,SSE,165,9.0,11.0,92,0.00,,,0.00,,2013-01-08 23:32:00,
2013-01-08 23:43:00,26.0,25.0,-100.00,South,175,7.0,10.0,92,0.00,,,0.00,,2013-01-08 23:43:00,
2013-01-08 23:52:00,26.0,25.0,-100.00,South,185,7.0,9.0,92,0.00,,,0.00,,2013-01-08 23:52:00,